Time,TemperatureF,DewpointF,PressureIn,WindDirection,WindDirectionDegrees,WindSpeedMPH,WindSpeedGustMPH,Humidity,HourlyPrecipIn,Conditions,Clouds,dailyrainin,SoftwareType,DateUTC
2013-03-08 00:02:00,31.9,20.3,29.91,NW,310,0.0,0.0,62,0.00,,,0.00,Wunderground v.1.15,2013-03-08 07:02:00,
2013-03-08 00:07:00,31.8,20.6,29.91,NW,310,0.0,0.0,63,0.00,,,0.00,Wunderground v.1.15,2013-03-08 07:07:00,
2013-03-08 00:12:00,32.0,20.8,29.91,NW,310,1.0,1.0,63,0.00,,,0.00,Wunderground v.1.15,2013-03-08 07:12:00,
2013-03-08 00:17:00,32.8,21.2,29.91,NW,310,0.0,2.0,62,0.00,,,0.00,Wunderground v.1.15,2013-03-08 07:17:00,
2013-03-08 00:22:00,32.8,21.2,29.91,NW,310,0.0,1.0,62,0.00,,,0.00,Wunderground v.1.15,2013-03-08 07:22:00,
2013-03-08 00:27:00,33.0,21.8,29.91,West,275,3.0,4.0,63,0.00,,,0.00,Wunderground v.1.15,2013-03-08 07:27:00,
2013-03-08 00:32:00,32.6,22.1,29.91,SE,144,7.0,7.0,65,0.00,,,0.00,Wunderground v.1.15,2013-03-08 07:32:00,
2013-03-08 00:37:00,33.3,23.5,29.91,SSE,160,5.0,7.0,67,0.00,,,0.00,Wunderground v.1.15,2013-03-08 07:37:00,
2013-03-08 00:42:00,33.6,24.2,29.90,South,169,6.0,6.0,68,0.00,,,0.00,Wunderground v.1.15,2013-03-08 07:42:00,
2013-03-08 00:47:00,32.8,24.1,29.91,South,188,6.0,9.0,70,0.00,,,0.00,Wunderground v.1.15,2013-03-08 07:47:00,
2013-03-08 00:52:00,32.6,24.2,29.91,South,187,3.0,6.0,71,0.00,,,0.00,Wunderground v.1.15,2013-03-08 07:52:00,
2013-03-08 00:57:00,32.4,24.4,29.91,SSW,209,6.0,7.0,72,0.00,,,0.00,Wunderground v.1.15,2013-03-08 07:57:00,
2013-03-08 01:02:00,32.0,24.0,29.91,West,263,6.0,6.0,72,0.00,,,0.00,Wunderground v.1.15,2013-03-08 08:02:00,
2013-03-08 01:07:00,31.5,22.5,29.91,WNW,290,6.0,7.0,69,0.00,,,0.00,Wunderground v.1.15,2013-03-08 08:07:00,
2013-03-08 01:12:00,31.2,22.2,29.90,NW,306,5.0,8.0,69,0.00,,,0.00,Wunderground v.1.15,2013-03-08 08:12:00,
2013-03-08 01:17:00,31.1,20.7,29.91,NW,306,5.0,8.0,65,0.00,,,0.00,Wunderground v.1.15,2013-03-08 08:17:00,
2013-03-08 01:22:00,31.0,20.6,29.91,NW,306,4.0,5.0,65,0.00,,,0.00,Wunderground v.1.15,2013-03-08 08:22:00,
2013-03-08 01:27:00,30.7,20.3,29.91,NW,304,4.0,6.0,65,0.00,,,0.00,Wunderground v.1.15,2013-03-08 08:27:00,
2013-03-08 01:32:00,30.5,20.8,29.90,WNW,301,6.0,7.0,67,0.00,,,0.00,Wunderground v.1.15,2013-03-08 08:32:00,
2013-03-08 01:37:00,30.5,20.8,29.91,WNW,294,5.0,8.0,67,0.00,,,0.00,Wunderground v.1.15,2013-03-08 08:37:00,
2013-03-08 01:42:00,30.6,20.2,29.90,WNW,291,7.0,8.0,65,0.00,,,0.00,Wunderground v.1.15,2013-03-08 08:42:00,
2013-03-08 01:47:00,30.6,19.9,29.90,WNW,291,7.0,9.0,64,0.00,,,0.00,Wunderground v.1.15,2013-03-08 08:47:00,
2013-03-08 01:52:00,30.6,19.5,29.89,WNW,295,7.0,10.0,63,0.00,,,0.00,Wunderground v.1.15,2013-03-08 08:52:00,
2013-03-08 01:57:00,30.4,19.3,29.90,WNW,292,9.0,13.0,63,0.00,,,0.00,Wunderground v.1.15,2013-03-08 08:57:00,
2013-03-08 02:02:00,30.2,19.5,29.89,WNW,293,9.0,10.0,64,0.00,,,0.00,Wunderground v.1.15,2013-03-08 09:02:00,
2013-03-08 02:07:00,30.0,19.3,29.89,WNW,290,7.0,10.0,64,0.00,,,0.00,Wunderground v.1.15,2013-03-08 09:07:00,
2013-03-08 02:12:00,29.6,19.3,29.89,WNW,290,5.0,8.0,65,0.00,,,0.00,Wunderground v.1.15,2013-03-08 09:12:00,
2013-03-08 02:17:00,29.2,18.9,29.89,WNW,299,4.0,8.0,65,0.00,,,0.00,Wunderground v.1.15,2013-03-08 09:17:00,
2013-03-08 02:22:00,29.0,18.7,29.89,WNW,302,5.0,7.0,65,0.00,,,0.00,Wunderground v.1.15,2013-03-08 09:22:00,
2013-03-08 02:27:00,28.8,18.5,29.89,NW,306,7.0,8.0,65,0.00,,,0.00,Wunderground v.1.15,2013-03-08 09:27:00,
2013-03-08 02:32:00,28.9,18.6,29.89,WNW,300,7.0,8.0,65,0.00,,,0.00,Wunderground v.1.15,2013-03-08 09:32:00,
2013-03-08 02:37:00,29.1,18.4,29.89,NW,317,7.0,9.0,64,0.00,,,0.00,Wunderground v.1.15,2013-03-08 09:37:00,
2013-03-08 02:42:00,29.8,18.4,29.88,NW,312,6.0,9.0,62,0.00,,,0.00,Wunderground v.1.15,2013-03-08 09:42:00,
2013-03-08 02:47:00,31.0,18.7,29.88,North,355,6.0,9.0,60,0.00,,,0.00,Wunderground v.1.15,2013-03-08 09:47:00,
2013-03-08 02:52:00,31.1,18.0,29.88,North,355,6.0,7.0,58,0.00,,,0.00,Wunderground v.1.15,2013-03-08 09:52:00,
2013-03-08 02:57:00,31.2,18.1,29.88,NNW,336,6.0,9.0,58,0.00,,,0.00,Wunderground v.1.15,2013-03-08 09:57:00,
2013-03-08 03:02:00,31.6,18.1,29.88,North,360,2.0,7.0,57,0.00,,,0.00,Wunderground v.1.15,2013-03-08 10:02:00,
2013-03-08 03:07:00,31.0,18.3,29.89,NNE,15,0.0,7.0,59,0.00,,,0.00,Wunderground v.1.15,2013-03-08 10:07:00,
2013-03-08 03:12:00,29.9,18.1,29.88,NE,34,3.0,5.0,61,0.00,,,0.00,Wunderground v.1.15,2013-03-08 10:12:00,
2013-03-08 03:17:00,29.1,17.7,29.88,NE,34,0.0,5.0,62,0.00,,,0.00,Wunderground v.1.15,2013-03-08 10:17:00,
2013-03-08 03:22:00,28.6,18.0,29.88,NE,34,3.0,4.0,64,0.00,,,0.00,Wunderground v.1.15,2013-03-08 10:22:00,
2013-03-08 03:27:00,27.8,17.2,29.88,NE,34,3.0,6.0,64,0.00,,,0.00,Wunderground v.1.15,2013-03-08 10:27:00,
2013-03-08 03:32:00,27.3,16.7,29.88,NE,34,3.0,4.0,64,0.00,,,0.00,Wunderground v.1.15,2013-03-08 10:32:00,
2013-03-08 03:37:00,27.2,16.6,29.88,NE,34,0.0,4.0,64,0.00,,,0.00,Wunderground v.1.15,2013-03-08 10:37:00,
2013-03-08 03:42:00,27.3,16.7,29.89,NE,34,0.0,2.0,64,0.00,,,0.00,Wunderground v.1.15,2013-03-08 10:42:00,
2013-03-08 03:47:00,27.0,16.8,29.88,NNE,33,1.0,2.0,65,0.00,,,0.00,Wunderground v.1.15,2013-03-08 10:47:00,
2013-03-08 03:52:00,27.3,16.7,29.89,NE,34,0.0,1.0,64,0.00,,,0.00,Wunderground v.1.15,2013-03-08 10:52:00,
2013-03-08 03:57:00,27.4,16.4,29.89,NNE,33,0.0,1.0,63,0.00,,,0.00,Wunderground v.1.15,2013-03-08 10:57:00,
2013-03-08 04:02:00,27.2,16.3,29.89,NNE,33,0.0,0.0,63,0.00,,,0.00,Wunderground v.1.15,2013-03-08 11:02:00,
2013-03-08 04:07:00,27.0,17.1,29.89,NNE,33,1.0,2.0,66,0.00,,,0.00,Wunderground v.1.15,2013-03-08 11:07:00,
2013-03-08 04:12:00,26.9,17.0,29.88,NNE,33,2.0,3.0,66,0.00,,,0.00,Wunderground v.1.15,2013-03-08 11:12:00,
2013-03-08 04:17:00,26.5,17.4,29.89,NNE,33,4.0,4.0,68,0.00,,,0.00,Wunderground v.1.15,2013-03-08 11:17:00,
2013-03-08 04:22:00,26.4,16.9,29.88,NW,306,4.0,7.0,67,0.00,,,0.00,Wunderground v.1.15,2013-03-08 11:22:00,
2013-03-08 04:27:00,26.8,17.6,29.88,NW,305,5.0,7.0,68,0.00,,,0.00,Wunderground v.1.15,2013-03-08 11:27:00,
2013-03-08 04:32:00,26.5,17.7,29.87,NW,305,4.0,5.0,69,0.00,,,0.00,Wunderground v.1.15,2013-03-08 11:32:00,
2013-03-08 04:37:00,26.3,17.5,29.88,NW,305,5.0,6.0,69,0.00,,,0.00,Wunderground v.1.15,2013-03-08 11:37:00,
2013-03-08 04:42:00,26.2,17.7,29.88,WNW,300,7.0,7.0,70,0.00,,,0.00,Wunderground v.1.15,2013-03-08 11:42:00,
2013-03-08 04:47:00,26.1,18.0,29.88,WNW,287,6.0,8.0,71,0.00,,,0.00,Wunderground v.1.15,2013-03-08 11:47:00,
2013-03-08 04:52:00,25.7,17.6,29.88,WNW,287,2.0,6.0,71,0.00,,,0.00,Wunderground v.1.15,2013-03-08 11:52:00,
2013-03-08 04:57:00,25.3,16.9,29.88,WNW,286,2.0,6.0,70,0.00,,,0.00,Wunderground v.1.15,2013-03-08 11:57:00,
2013-03-08 05:02:00,25.0,16.9,29.88,WNW,286,2.0,3.0,71,0.00,,,0.00,Wunderground v.1.15,2013-03-08 12:02:00,
2013-03-08 05:07:00,24.8,16.4,29.88,WNW,287,5.0,6.0,70,0.00,,,0.00,Wunderground v.1.15,2013-03-08 12:07:00,
2013-03-08 05:12:00,24.7,15.6,29.88,WNW,288,6.0,7.0,68,0.00,,,0.00,Wunderground v.1.15,2013-03-08 12:12:00,
2013-03-08 05:17:00,25.2,15.4,29.88,WNW,292,7.0,8.0,66,0.00,,,0.00,Wunderground v.1.15,2013-03-08 12:17:00,
2013-03-08 05:22:00,25.8,15.6,29.88,WNW,298,7.0,9.0,65,0.00,,,0.00,Wunderground v.1.15,2013-03-08 12:22:00,
2013-03-08 05:27:00,26.4,15.9,29.87,WNW,290,7.0,9.0,64,0.00,,,0.00,Wunderground v.1.15,2013-03-08 12:27:00,
2013-03-08 05:32:00,26.7,16.1,29.88,WNW,285,7.0,8.0,64,0.00,,,0.00,Wunderground v.1.15,2013-03-08 12:32:00,
2013-03-08 05:37:00,26.9,16.0,29.87,NW,313,6.0,10.0,63,0.00,,,0.00,Wunderground v.1.15,2013-03-08 12:37:00,
2013-03-08 05:42:00,27.2,15.9,29.87,NW,304,6.0,8.0,62,0.00,,,0.00,Wunderground v.1.15,2013-03-08 12:42:00,
2013-03-08 05:47:00,27.4,16.4,29.87,WNW,302,3.0,8.0,63,0.00,,,0.00,Wunderground v.1.15,2013-03-08 12:47:00,
2013-03-08 05:52:00,27.6,17.0,29.87,WNW,303,0.0,6.0,64,0.00,,,0.00,Wunderground v.1.15,2013-03-08 12:52:00,
2013-03-08 05:57:00,27.6,16.6,29.87,North,5,0.0,6.0,63,0.00,,,0.00,Wunderground v.1.15,2013-03-08 12:57:00,
2013-03-08 06:02:00,27.5,16.5,29.88,SE,140,0.0,6.0,63,0.00,,,0.00,Wunderground v.1.15,2013-03-08 13:02:00,
2013-03-08 06:07:00,28.0,16.6,29.87,NW,323,4.0,11.0,62,0.00,,,0.00,Wunderground v.1.15,2013-03-08 13:07:00,
2013-03-08 06:12:00,28.6,16.8,29.87,NW,318,0.0,4.0,61,0.00,,,0.00,Wunderground v.1.15,2013-03-08 13:12:00,
2013-03-08 06:17:00,28.6,16.5,29.87,NNW,345,1.0,5.0,60,0.00,,,0.00,Wunderground v.1.15,2013-03-08 13:17:00,
2013-03-08 06:22:00,28.3,16.6,29.87,NNW,343,4.0,4.0,61,0.00,,,0.00,Wunderground v.1.15,2013-03-08 13:22:00,
2013-03-08 06:27:00,28.3,16.6,29.86,NNW,338,3.0,6.0,61,0.00,,,0.00,Wunderground v.1.15,2013-03-08 13:27:00,
2013-03-08 06:32:00,28.3,16.9,29.86,NNW,338,4.0,5.0,62,0.00,,,0.00,Wunderground v.1.15,2013-03-08 13:32:00,
2013-03-08 06:37:00,27.9,16.6,29.86,North,355,3.0,5.0,62,0.00,,,0.00,Wunderground v.1.15,2013-03-08 13:37:00,
2013-03-08 06:42:00,27.6,17.0,29.86,North,355,5.0,5.0,64,0.00,,,0.00,Wunderground v.1.15,2013-03-08 13:42:00,
2013-03-08 06:47:00,27.4,17.2,29.86,North,350,3.0,5.0,65,0.00,,,0.00,Wunderground v.1.15,2013-03-08 13:47:00,
2013-03-08 06:52:00,27.3,17.4,29.86,North,351,1.0,5.0,66,0.00,,,0.00,Wunderground v.1.15,2013-03-08 13:52:00,
2013-03-08 06:57:00,27.4,17.9,29.86,North,351,0.0,5.0,67,0.00,,,0.00,Wunderground v.1.15,2013-03-08 13:57:00,
2013-03-08 07:02:00,27.6,17.7,29.86,North,350,1.0,2.0,66,0.00,,,0.00,Wunderground v.1.15,2013-03-08 14:02:00,
2013-03-08 07:07:00,27.8,17.9,29.86,North,355,2.0,3.0,66,0.00,,,0.00,Wunderground v.1.15,2013-03-08 14:07:00,
2013-03-08 07:12:00,27.9,18.0,29.87,North,355,0.0,3.0,66,0.00,,,0.00,Wunderground v.1.15,2013-03-08 14:12:00,
2013-03-08 07:17:00,27.9,17.6,29.87,North,355,0.0,3.0,65,0.00,,,0.00,Wunderground v.1.15,2013-03-08 14:17:00,
2013-03-08 07:22:00,27.9,18.0,29.87,North,355,0.0,2.0,66,0.00,,,0.00,Wunderground v.1.15,2013-03-08 14:22:00,
2013-03-08 07:27:00,27.8,18.3,29.87,North,355,1.0,3.0,67,0.00,,,0.00,Wunderground v.1.15,2013-03-08 14:27:00,
2013-03-08 07:32:00,27.7,17.8,29.87,North,355,0.0,2.0,66,0.00,,,0.00,Wunderground v.1.15,2013-03-08 14:32:00,
2013-03-08 07:37:00,27.9,18.4,29.87,NNE,19,3.0,6.0,67,0.00,,,0.00,Wunderground v.1.15,2013-03-08 14:37:00,
2013-03-08 07:42:00,28.8,18.9,29.87,NE,35,3.0,6.0,66,0.00,,,0.00,Wunderground v.1.15,2013-03-08 14:42:00,
2013-03-08 07:47:00,29.8,19.1,29.87,NE,35,2.0,6.0,64,0.00,,,0.00,Wunderground v.1.15,2013-03-08 14:47:00,
2013-03-08 07:52:00,30.8,20.4,29.87,NE,37,4.0,5.0,65,0.00,,,0.00,Wunderground v.1.15,2013-03-08 14:52:00,
2013-03-08 07:57:00,31.3,19.8,29.86,NE,49,3.0,5.0,62,0.00,,,0.00,Wunderground v.1.15,2013-03-08 14:57:00,
2013-03-08 08:02:00,31.0,19.5,29.86,NE,49,3.0,4.0,62,0.00,,,0.00,Wunderground v.1.15,2013-03-08 15:02:00,
2013-03-08 08:07:00,30.8,19.7,29.86,NE,49,5.0,5.0,63,0.00,,,0.00,Wunderground v.1.15,2013-03-08 15:07:00,
2013-03-08 08:12:00,31.3,20.5,29.86,NE,49,1.0,4.0,64,0.00,,,0.00,Wunderground v.1.15,2013-03-08 15:12:00,
2013-03-08 08:17:00,31.9,20.0,29.85,NE,49,4.0,4.0,61,0.00,,,0.00,Wunderground v.1.15,2013-03-08 15:17:00,
2013-03-08 08:22:00,33.0,19.4,29.85,NE,49,1.0,6.0,57,0.00,,,0.00,Wunderground v.1.15,2013-03-08 15:22:00,
2013-03-08 08:27:00,33.6,18.7,29.85,NE,49,0.0,6.0,54,0.00,,,0.00,Wunderground v.1.15,2013-03-08 15:27:00,
2013-03-08 08:32:00,34.1,19.2,29.85,NE,49,0.0,1.0,54,0.00,,,0.00,Wunderground v.1.15,2013-03-08 15:32:00,
2013-03-08 08:37:00,34.4,19.0,29.84,NE,49,0.0,4.0,53,0.00,,,0.00,Wunderground v.1.15,2013-03-08 15:37:00,
2013-03-08 08:42:00,34.9,19.5,29.85,NE,49,0.0,1.0,53,0.00,,,0.00,Wunderground v.1.15,2013-03-08 15:42:00,
2013-03-08 08:47:00,35.3,19.0,29.85,NE,49,0.0,1.0,51,0.00,,,0.00,Wunderground v.1.15,2013-03-08 15:47:00,
2013-03-08 08:52:00,35.5,19.1,29.84,NE,49,0.0,1.0,51,0.00,,,0.00,Wunderground v.1.15,2013-03-08 15:52:00,
2013-03-08 08:57:00,35.6,19.2,29.84,NE,52,0.0,3.0,51,0.00,,,0.00,Wunderground v.1.15,2013-03-08 15:57:00,
2013-03-08 09:02:00,35.7,18.9,29.84,NE,54,0.0,2.0,50,0.00,,,0.00,Wunderground v.1.15,2013-03-08 16:02:00,
2013-03-08 09:07:00,35.6,18.8,29.84,ENE,78,0.0,2.0,50,0.00,,,0.00,Wunderground v.1.15,2013-03-08 16:07:00,
2013-03-08 09:12:00,35.7,19.3,29.84,ENE,78,0.0,3.0,51,0.00,,,0.00,Wunderground v.1.15,2013-03-08 16:12:00,
2013-03-08 09:17:00,35.7,19.3,29.84,ENE,78,0.0,3.0,51,0.00,,,0.00,Wunderground v.1.15,2013-03-08 16:17:00,
2013-03-08 09:22:00,35.5,19.1,29.83,ENE,78,0.0,3.0,51,0.00,,,0.00,Wunderground v.1.15,2013-03-08 16:22:00,
2013-03-08 09:27:00,35.6,19.2,29.84,ENE,78,1.0,3.0,51,0.00,,,0.00,Wunderground v.1.15,2013-03-08 16:27:00,
2013-03-08 09:32:00,35.6,19.2,29.84,ENE,78,0.0,1.0,51,0.00,,,0.00,Wunderground v.1.15,2013-03-08 16:32:00,
2013-03-08 09:37:00,35.8,19.0,29.84,ENE,78,0.0,1.0,50,0.00,,,0.00,Wunderground v.1.15,2013-03-08 16:37:00,
2013-03-08 09:42:00,36.1,19.7,29.83,ENE,78,0.0,0.0,51,0.00,,,0.00,Wunderground v.1.15,2013-03-08 16:42:00,
2013-03-08 09:47:00,36.7,20.3,29.83,ENE,78,0.0,4.0,51,0.00,,,0.00,Wunderground v.1.15,2013-03-08 16:47:00,
2013-03-08 09:52:00,37.3,19.9,29.83,ENE,78,0.0,2.0,49,0.00,,,0.00,Wunderground v.1.15,2013-03-08 16:52:00,
2013-03-08 09:57:00,37.7,20.7,29.82,SE,124,1.0,3.0,50,0.00,,,0.00,Wunderground v.1.15,2013-03-08 16:57:00,
2013-03-08 10:02:00,38.0,20.0,29.81,SE,124,1.0,3.0,48,0.00,,,0.00,Wunderground v.1.15,2013-03-08 17:02:00,
2013-03-08 10:07:00,38.3,19.3,29.81,SE,124,0.0,3.0,46,0.00,,,0.00,Wunderground v.1.15,2013-03-08 17:07:00,
2013-03-08 10:12:00,38.7,20.7,29.80,SE,128,2.0,5.0,48,0.00,,,0.00,Wunderground v.1.15,2013-03-08 17:12:00,
2013-03-08 10:17:00,39.2,20.6,29.81,SE,129,3.0,5.0,47,0.00,,,0.00,Wunderground v.1.15,2013-03-08 17:17:00,
2013-03-08 10:22:00,39.7,20.6,29.80,SE,129,0.0,3.0,46,0.00,,,0.00,Wunderground v.1.15,2013-03-08 17:22:00,
2013-03-08 10:27:00,40.2,21.0,29.80,SE,128,2.0,4.0,46,0.00,,,0.00,Wunderground v.1.15,2013-03-08 17:27:00,
2013-03-08 10:32:00,40.9,21.7,29.79,SE,130,0.0,4.0,46,0.00,,,0.00,Wunderground v.1.15,2013-03-08 17:32:00,
2013-03-08 10:37:00,41.3,21.5,29.79,SE,130,1.0,5.0,45,0.00,,,0.00,Wunderground v.1.15,2013-03-08 17:37:00,
2013-03-08 10:42:00,41.8,19.8,29.79,SE,129,0.0,3.0,41,0.00,,,0.00,Wunderground v.1.15,2013-03-08 17:42:00,
2013-03-08 10:47:00,42.1,20.1,29.79,SE,129,2.0,3.0,41,0.00,,,0.00,Wunderground v.1.15,2013-03-08 17:47:00,
2013-03-08 10:52:00,42.4,19.8,29.78,SE,128,0.0,1.0,40,0.00,,,0.00,Wunderground v.1.15,2013-03-08 17:52:00,
2013-03-08 10:57:00,42.7,20.0,29.78,SE,128,0.0,1.0,40,0.00,,,0.00,Wunderground v.1.15,2013-03-08 17:57:00,
2013-03-08 11:02:00,43.1,21.0,29.78,SE,128,0.0,2.0,41,0.00,,,0.00,Wunderground v.1.15,2013-03-08 18:02:00,
2013-03-08 11:07:00,43.7,22.6,29.77,SE,129,0.0,4.0,43,0.00,,,0.00,Wunderground v.1.15,2013-03-08 18:07:00,
2013-03-08 11:12:00,44.5,21.6,29.77,SE,128,0.0,1.0,40,0.00,,,0.00,Wunderground v.1.15,2013-03-08 18:12:00,
2013-03-08 11:17:00,44.7,21.8,29.77,SE,128,0.0,2.0,40,0.00,,,0.00,Wunderground v.1.15,2013-03-08 18:17:00,
2013-03-08 11:22:00,45.3,22.4,29.76,SE,128,1.0,3.0,40,0.00,,,0.00,Wunderground v.1.15,2013-03-08 18:22:00,
2013-03-08 11:27:00,46.1,24.3,29.76,SW,230,4.0,5.0,42,0.00,,,0.00,Wunderground v.1.15,2013-03-08 18:27:00,
2013-03-08 11:32:00,46.5,22.2,29.76,SSE,168,0.0,4.0,38,0.00,,,0.00,Wunderground v.1.15,2013-03-08 18:32:00,
2013-03-08 11:37:00,46.8,23.1,29.75,South,169,0.0,4.0,39,0.00,,,0.00,Wunderground v.1.15,2013-03-08 18:37:00,
2013-03-08 11:42:00,46.8,23.1,29.75,South,169,2.0,2.0,39,0.00,,,0.00,Wunderground v.1.15,2013-03-08 18:42:00,
2013-03-08 11:47:00,46.6,22.9,29.74,South,169,0.0,2.0,39,0.00,,,0.00,Wunderground v.1.15,2013-03-08 18:47:00,
2013-03-08 11:52:00,47.3,24.2,29.74,South,169,0.0,0.0,40,0.00,,,0.00,Wunderground v.1.15,2013-03-08 18:52:00,
2013-03-08 11:57:00,48.2,25.0,29.73,South,185,8.0,9.0,40,0.00,,,0.00,Wunderground v.1.15,2013-03-08 18:57:00,
2013-03-08 12:02:00,49.2,26.5,29.72,SSE,168,6.0,8.0,41,0.00,,,0.00,Wunderground v.1.15,2013-03-08 19:02:00,
2013-03-08 12:07:00,49.9,24.6,29.71,SE,145,1.0,10.0,37,0.00,,,0.00,Wunderground v.1.15,2013-03-08 19:07:00,
2013-03-08 12:12:00,50.9,25.5,29.71,SSE,165,14.0,16.0,37,0.00,,,0.00,Wunderground v.1.15,2013-03-08 19:12:00,
2013-03-08 12:17:00,49.8,25.2,29.70,SSE,154,15.0,22.0,38,0.00,,,0.00,Wunderground v.1.15,2013-03-08 19:17:00,
2013-03-08 12:22:00,49.2,24.6,29.70,SSE,155,17.0,22.0,38,0.00,,,0.00,Wunderground v.1.15,2013-03-08 19:22:00,
2013-03-08 12:27:00,48.7,26.0,29.70,SSE,167,18.0,23.0,41,0.00,,,0.00,Wunderground v.1.15,2013-03-08 19:27:00,
2013-03-08 12:32:00,48.9,25.0,29.69,SSE,151,19.0,21.0,39,0.00,,,0.00,Wunderground v.1.15,2013-03-08 19:32:00,
2013-03-08 12:37:00,49.2,25.3,29.69,South,188,27.0,33.0,39,0.00,,,0.00,Wunderground v.1.15,2013-03-08 19:37:00,
2013-03-08 12:42:00,49.2,25.3,29.69,South,184,22.0,27.0,39,0.00,,,0.00,Wunderground v.1.15,2013-03-08 19:42:00,
2013-03-08 12:47:00,49.0,23.8,29.68,South,169,22.0,32.0,37,0.00,,,0.00,Wunderground v.1.15,2013-03-08 19:47:00,
2013-03-08 12:52:00,49.1,24.6,29.68,SE,142,23.0,30.0,38,0.00,,,0.00,Wunderground v.1.15,2013-03-08 19:52:00,
2013-03-08 12:57:00,48.7,24.8,29.68,SSE,159,21.0,32.0,39,0.00,,,0.00,Wunderground v.1.15,2013-03-08 19:57:00,
2013-03-08 13:02:00,48.5,24.6,29.68,SSE,159,21.0,28.0,39,0.00,,,0.00,Wunderground v.1.15,2013-03-08 20:02:00,
2013-03-08 13:07:00,48.2,25.0,29.68,SSE,160,23.0,28.0,40,0.00,,,0.00,Wunderground v.1.15,2013-03-08 20:07:00,
2013-03-08 13:12:00,48.0,24.2,29.68,SSE,147,19.0,23.0,39,0.00,,,0.00,Wunderground v.1.15,2013-03-08 20:12:00,
2013-03-08 13:17:00,47.8,24.6,29.68,South,178,21.0,25.0,40,0.00,,,0.00,Wunderground v.1.15,2013-03-08 20:17:00,
2013-03-08 13:22:00,47.7,24.5,29.68,SSW,197,17.0,23.0,40,0.00,,,0.00,Wunderground v.1.15,2013-03-08 20:22:00,
2013-03-08 13:27:00,47.6,25.0,29.68,SSW,205,19.0,23.0,41,0.00,,,0.00,Wunderground v.1.15,2013-03-08 20:27:00,
2013-03-08 13:32:00,47.4,25.4,29.67,SSW,202,17.0,21.0,42,0.00,,,0.00,Wunderground v.1.15,2013-03-08 20:32:00,
2013-03-08 13:37:00,47.2,25.3,29.67,SSE,150,20.0,23.0,42,0.00,,,0.00,Wunderground v.1.15,2013-03-08 20:37:00,
2013-03-08 13:42:00,46.7,25.9,29.68,SSE,157,18.0,26.0,44,0.00,,,0.00,Wunderground v.1.15,2013-03-08 20:42:00,
2013-03-08 13:47:00,46.7,27.0,29.68,SE,145,14.0,26.0,46,0.00,,,0.00,Wunderground v.1.15,2013-03-08 20:47:00,
2013-03-08 13:52:00,46.7,26.5,29.67,SSE,159,18.0,22.0,45,0.00,,,0.00,Wunderground v.1.15,2013-03-08 20:52:00,
2013-03-08 13:57:00,48.5,27.6,29.66,SSE,156,17.0,22.0,44,0.00,,,0.00,Wunderground v.1.15,2013-03-08 20:57:00,
2013-03-08 14:02:00,48.7,27.7,29.66,SSE,159,20.0,26.0,44,0.00,,,0.00,Wunderground v.1.15,2013-03-08 21:02:00,
2013-03-08 14:07:00,48.8,26.7,29.66,SSE,163,18.0,26.0,42,0.00,,,0.00,Wunderground v.1.15,2013-03-08 21:07:00,
2013-03-08 14:12:00,46.8,27.1,29.67,SSE,167,17.0,29.0,46,0.00,,,0.00,Wunderground v.1.15,2013-03-08 21:12:00,
2013-03-08 14:17:00,46.2,27.1,29.67,SSE,159,15.0,29.0,47,0.00,,,0.00,Wunderground v.1.15,2013-03-08 21:17:00,
2013-03-08 14:22:00,46.6,27.4,29.66,SSE,147,15.0,20.0,47,0.00,,,0.00,Wunderground v.1.15,2013-03-08 21:22:00,
2013-03-08 14:27:00,47.3,27.5,29.66,SE,136,19.0,22.0,46,0.00,,,0.00,Wunderground v.1.15,2013-03-08 21:27:00,
2013-03-08 14:32:00,47.4,27.1,29.66,SE,127,20.0,21.0,45,0.00,,,0.00,Wunderground v.1.15,2013-03-08 21:32:00,
2013-03-08 14:37:00,47.0,27.3,29.67,SW,224,15.0,21.0,46,0.00,,,0.00,Wunderground v.1.15,2013-03-08 21:37:00,
2013-03-08 14:42:00,47.2,26.4,29.66,WNW,290,8.0,15.0,44,0.00,,,0.00,Wunderground v.1.15,2013-03-08 21:42:00,
2013-03-08 14:47:00,47.6,27.3,29.67,SSE,161,13.0,16.0,45,0.00,,,0.00,Wunderground v.1.15,2013-03-08 21:47:00,
2013-03-08 14:52:00,46.9,27.7,29.67,South,172,18.0,22.0,47,0.00,,,0.00,Wunderground v.1.15,2013-03-08 21:52:00,
2013-03-08 14:57:00,46.5,27.3,29.66,SSE,153,15.0,22.0,47,0.00,,,0.00,Wunderground v.1.15,2013-03-08 21:57:00,
2013-03-08 15:02:00,46.7,26.5,29.65,SSE,155,18.0,25.0,45,0.00,,,0.00,Wunderground v.1.15,2013-03-08 22:02:00,
2013-03-08 15:07:00,46.6,26.9,29.65,SSE,161,18.0,25.0,46,0.00,,,0.00,Wunderground v.1.15,2013-03-08 22:07:00,
2013-03-08 15:12:00,46.8,26.6,29.63,SSE,156,13.0,20.0,45,0.00,,,0.00,Wunderground v.1.15,2013-03-08 22:12:00,
2013-03-08 15:17:00,47.1,26.8,29.65,SSE,159,17.0,20.0,45,0.00,,,0.00,Wunderground v.1.15,2013-03-08 22:17:00,
2013-03-08 15:22:00,46.8,27.1,29.65,SSE,160,14.0,22.0,46,0.00,,,0.00,Wunderground v.1.15,2013-03-08 22:22:00,
2013-03-08 15:27:00,46.4,26.7,29.65,SE,144,15.0,22.0,46,0.00,,,0.00,Wunderground v.1.15,2013-03-08 22:27:00,
2013-03-08 15:32:00,46.3,26.6,29.65,SSE,153,18.0,20.0,46,0.00,,,0.00,Wunderground v.1.15,2013-03-08 22:32:00,
2013-03-08 15:37:00,46.1,26.4,29.65,SE,144,12.0,22.0,46,0.00,,,0.00,Wunderground v.1.15,2013-03-08 22:37:00,
2013-03-08 15:42:00,46.3,27.2,29.64,South,180,15.0,19.0,47,0.00,,,0.00,Wunderground v.1.15,2013-03-08 22:42:00,
2013-03-08 15:47:00,46.1,27.5,29.64,SE,135,12.0,19.0,48,0.00,,,0.00,Wunderground v.1.15,2013-03-08 22:47:00,
2013-03-08 15:53:00,45.6,27.0,29.64,SE,134,15.0,21.0,48,0.00,,,0.00,Wunderground v.1.15,2013-03-08 22:53:00,
2013-03-08 15:58:00,45.6,27.0,29.63,SE,146,9.0,22.0,48,0.00,,,0.00,Wunderground v.1.15,2013-03-08 22:58:00,
2013-03-08 16:03:00,45.6,27.0,29.64,SSE,148,15.0,20.0,48,0.00,,,0.00,Wunderground v.1.15,2013-03-08 23:03:00,
2013-03-08 16:08:00,45.4,27.3,29.65,SE,145,18.0,21.0,49,0.00,,,0.00,Wunderground v.1.15,2013-03-08 23:08:00,
2013-03-08 16:13:00,45.3,26.2,29.65,SSE,158,17.0,21.0,47,0.00,,,0.00,Wunderground v.1.15,2013-03-08 23:13:00,
2013-03-08 16:18:00,45.0,26.5,29.64,SSE,148,16.0,22.0,48,0.00,,,0.00,Wunderground v.1.15,2013-03-08 23:18:00,
2013-03-08 16:23:00,44.9,26.9,29.63,SSE,150,16.0,24.0,49,0.00,,,0.00,Wunderground v.1.15,2013-03-08 23:23:00,
2013-03-08 16:28:00,44.9,26.4,29.63,SE,144,15.0,24.0,48,0.00,,,0.00,Wunderground v.1.15,2013-03-08 23:28:00,
2013-03-08 16:33:00,44.7,26.7,29.63,SE,141,20.0,22.0,49,0.00,,,0.00,Wunderground v.1.15,2013-03-08 23:33:00,
2013-03-08 16:38:00,44.5,27.0,29.63,SE,135,16.0,24.0,50,0.00,,,0.00,Wunderground v.1.15,2013-03-08 23:38:00,
2013-03-08 16:43:00,44.4,27.4,29.63,SE,145,20.0,25.0,51,0.00,,,0.00,Wunderground v.1.15,2013-03-08 23:43:00,
2013-03-08 16:48:00,44.1,28.9,29.63,SSE,155,19.0,27.0,55,0.00,,,0.00,Wunderground v.1.15,2013-03-08 23:48:00,
2013-03-08 16:53:00,43.6,29.4,29.63,SE,129,17.0,21.0,57,0.00,,,0.00,Wunderground v.1.15,2013-03-08 23:53:00,
2013-03-08 16:58:00,43.0,29.2,29.63,SSE,150,11.0,23.0,58,0.00,,,0.00,Wunderground v.1.15,2013-03-08 23:58:00,
2013-03-08 17:03:00,42.6,29.7,29.64,SSE,156,14.0,25.0,60,0.00,,,0.00,Wunderground v.1.15,2013-03-09 00:03:00,
2013-03-08 17:08:00,42.4,29.5,29.64,SE,144,17.0,25.0,60,0.00,,,0.00,Wunderground v.1.15,2013-03-09 00:08:00,
2013-03-08 17:13:00,42.1,30.0,29.64,SE,140,16.0,22.0,62,0.00,,,0.00,Wunderground v.1.15,2013-03-09 00:13:00,
2013-03-08 17:18:00,41.5,29.8,29.64,SE,144,17.0,25.0,63,0.00,,,0.00,Wunderground v.1.15,2013-03-09 00:18:00,
2013-03-08 17:23:00,41.1,29.8,29.64,SSE,150,15.0,26.0,64,0.00,,,0.00,Wunderground v.1.15,2013-03-09 00:23:00,
2013-03-08 17:28:00,40.8,29.6,29.65,SSE,168,15.0,26.0,64,0.00,,,0.00,Wunderground v.1.15,2013-03-09 00:28:00,
2013-03-08 17:33:00,40.2,29.7,29.65,NW,307,10.0,17.0,66,0.00,,,0.00,Wunderground v.1.15,2013-03-09 00:33:00,
2013-03-08 17:38:00,39.5,29.1,29.65,WNW,290,7.0,17.0,66,0.00,,,0.00,Wunderground v.1.15,2013-03-09 00:38:00,
2013-03-08 17:43:00,38.4,29.1,29.65,South,169,11.0,13.0,69,0.00,,,0.00,Wunderground v.1.15,2013-03-09 00:43:00,
2013-03-08 17:48:00,37.8,29.2,29.65,South,171,7.0,13.0,71,0.00,,,0.00,Wunderground v.1.15,2013-03-09 00:48:00,
2013-03-08 17:53:00,37.9,29.3,29.64,WSW,240,6.0,8.0,71,0.00,,,0.00,Wunderground v.1.15,2013-03-09 00:53:00,
2013-03-08 17:58:00,38.0,29.4,29.65,West,273,1.0,8.0,71,0.00,,,0.00,Wunderground v.1.15,2013-03-09 00:58:00,
2013-03-08 18:03:00,38.2,29.6,29.65,West,273,1.0,4.0,71,0.00,,,0.00,Wunderground v.1.15,2013-03-09 01:03:00,
2013-03-08 18:08:00,38.2,30.0,29.65,SSE,160,13.0,13.0,72,0.00,,,0.00,Wunderground v.1.15,2013-03-09 01:08:00,
2013-03-08 18:13:00,37.9,30.4,29.65,SSE,163,4.0,10.0,74,0.00,,,0.00,Wunderground v.1.15,2013-03-09 01:13:00,
2013-03-08 18:18:00,37.8,30.6,29.65,South,171,6.0,10.0,75,0.00,,,0.00,Wunderground v.1.15,2013-03-09 01:18:00,
2013-03-08 18:23:00,37.6,30.4,29.65,SE,145,13.0,13.0,75,0.00,,,0.00,Wunderground v.1.15,2013-03-09 01:23:00,
2013-03-08 18:28:00,37.4,30.5,29.65,SE,146,16.0,16.0,76,0.00,,,0.00,Wunderground v.1.15,2013-03-09 01:28:00,
2013-03-08 18:33:00,37.0,30.8,29.65,SSE,148,12.0,22.0,78,0.00,,,0.00,Wunderground v.1.15,2013-03-09 01:33:00,
2013-03-08 18:38:00,36.7,30.8,29.65,SE,145,14.0,22.0,79,0.00,,,0.00,Wunderground v.1.15,2013-03-09 01:38:00,
2013-03-08 18:43:00,36.8,31.2,29.65,SSE,155,20.0,27.0,80,0.00,,,0.00,Wunderground v.1.15,2013-03-09 01:43:00,
2013-03-08 18:48:00,36.0,30.7,29.66,SSE,155,21.0,32.0,81,0.00,,,0.00,Wunderground v.1.15,2013-03-09 01:48:00,
2013-03-08 18:53:00,33.8,28.9,29.68,WSW,252,18.0,39.0,82,0.00,,,0.00,Wunderground v.1.15,2013-03-09 01:53:00,
2013-03-08 18:58:00,32.7,28.7,29.68,SW,234,5.0,39.0,85,0.00,,,0.00,Wunderground v.1.15,2013-03-09 01:58:00,
2013-03-08 19:03:00,32.5,29.1,29.67,SW,233,6.0,14.0,87,0.00,,,0.00,Wunderground v.1.15,2013-03-09 02:03:00,
2013-03-08 19:08:00,32.4,29.2,29.66,SW,232,7.0,14.0,88,0.00,,,0.00,Wunderground v.1.15,2013-03-09 02:08:00,
2013-03-08 19:13:00,32.3,29.4,29.66,SW,230,6.0,11.0,89,0.00,,,0.00,Wunderground v.1.15,2013-03-09 02:13:00,
2013-03-08 19:18:00,32.2,29.3,29.65,SW,230,2.0,11.0,89,0.00,,,0.00,Wunderground v.1.15,2013-03-09 02:18:00,
2013-03-08 19:23:00,32.1,29.2,29.65,SW,230,6.0,6.0,89,0.00,,,0.00,Wunderground v.1.15,2013-03-09 02:23:00,
2013-03-08 19:28:00,32.0,29.4,29.65,SW,231,6.0,9.0,90,0.00,,,0.00,Wunderground v.1.15,2013-03-09 02:28:00,
2013-03-08 19:33:00,31.9,29.3,29.65,SW,231,8.0,9.0,90,0.00,,,0.00,Wunderground v.1.15,2013-03-09 02:33:00,
2013-03-08 19:38:00,31.9,29.3,29.65,SW,231,10.0,12.0,90,0.00,,,0.00,Wunderground v.1.15,2013-03-09 02:38:00,
2013-03-08 19:43:00,31.8,29.2,29.65,SW,230,10.0,10.0,90,0.00,,,0.00,Wunderground v.1.15,2013-03-09 02:43:00,
2013-03-08 19:48:00,31.8,29.2,29.65,SW,231,7.0,12.0,90,0.00,,,0.00,Wunderground v.1.15,2013-03-09 02:48:00,
2013-03-08 19:53:00,31.9,29.6,29.65,SW,231,9.0,11.0,91,0.00,,,0.00,Wunderground v.1.15,2013-03-09 02:53:00,
2013-03-08 19:58:00,31.9,29.6,29.64,SW,231,8.0,12.0,91,0.00,,,0.00,Wunderground v.1.15,2013-03-09 02:58:00,
2013-03-08 20:03:00,31.9,29.6,29.64,SW,232,11.0,12.0,91,0.00,,,0.00,Wunderground v.1.15,2013-03-09 03:03:00,
2013-03-08 20:08:00,32.0,29.7,29.64,SW,232,8.0,16.0,91,0.00,,,0.00,Wunderground v.1.15,2013-03-09 03:08:00,
2013-03-08 20:13:00,32.0,29.7,29.65,SW,232,8.0,12.0,91,0.00,,,0.00,Wunderground v.1.15,2013-03-09 03:13:00,
2013-03-08 20:18:00,31.9,29.3,29.64,SW,232,8.0,12.0,90,0.00,,,0.00,Wunderground v.1.15,2013-03-09 03:18:00,
2013-03-08 20:23:00,31.7,29.1,29.64,SW,232,10.0,13.0,90,0.00,,,0.00,Wunderground v.1.15,2013-03-09 03:23:00,
2013-03-08 20:28:00,31.7,28.8,29.64,SW,232,7.0,13.0,89,0.00,,,0.00,Wunderground v.1.15,2013-03-09 03:28:00,
2013-03-08 20:33:00,31.2,28.3,29.65,SW,232,1.0,8.0,89,0.00,,,0.00,Wunderground v.1.15,2013-03-09 03:33:00,
2013-03-08 20:38:00,30.9,28.0,29.65,SW,232,0.0,8.0,89,0.00,,,0.00,Wunderground v.1.15,2013-03-09 03:38:00,
2013-03-08 20:43:00,30.7,27.8,29.65,SW,232,9.0,11.0,89,0.00,,,0.00,Wunderground v.1.15,2013-03-09 03:43:00,
2013-03-08 20:48:00,30.6,27.5,29.64,SW,232,0.0,11.0,88,0.00,,,0.00,Wunderground v.1.15,2013-03-09 03:48:00,
2013-03-08 20:53:00,30.5,27.4,29.64,SW,232,0.0,4.0,88,0.00,,,0.00,Wunderground v.1.15,2013-03-09 03:53:00,
2013-03-08 20:58:00,30.4,27.3,29.65,SW,232,0.0,4.0,88,0.00,,,0.00,Wunderground v.1.15,2013-03-09 03:58:00,
2013-03-08 21:03:00,29.8,26.7,29.66,SW,232,2.0,4.0,88,0.00,,,0.00,Wunderground v.1.15,2013-03-09 04:03:00,
2013-03-08 21:08:00,29.2,26.4,29.67,SW,232,1.0,4.0,89,0.00,,,0.00,Wunderground v.1.15,2013-03-09 04:08:00,
2013-03-08 21:13:00,28.8,26.0,29.66,SW,232,0.0,2.0,89,0.00,,,0.00,Wunderground v.1.15,2013-03-09 04:13:00,
2013-03-08 21:18:00,28.8,26.0,29.65,SW,232,0.0,2.0,89,0.00,,,0.00,Wunderground v.1.15,2013-03-09 04:18:00,
2013-03-08 21:23:00,29.0,26.2,29.66,SW,232,0.0,1.0,89,0.00,,,0.00,Wunderground v.1.15,2013-03-09 04:23:00,
2013-03-08 21:28:00,29.2,26.6,29.66,SW,232,1.0,3.0,90,0.00,,,0.00,Wunderground v.1.15,2013-03-09 04:28:00,
2013-03-08 21:33:00,29.4,26.6,29.66,SW,232,2.0,4.0,89,0.00,,,0.00,Wunderground v.1.15,2013-03-09 04:33:00,
2013-03-08 21:38:00,29.5,26.9,29.66,SW,232,5.0,9.0,90,0.00,,,0.00,Wunderground v.1.15,2013-03-09 04:38:00,
2013-03-08 21:43:00,29.5,26.9,29.66,SW,232,3.0,7.0,90,0.00,,,0.00,Wunderground v.1.15,2013-03-09 04:43:00,
2013-03-08 21:48:00,29.5,26.9,29.65,SW,232,4.0,7.0,90,0.00,,,0.00,Wunderground v.1.15,2013-03-09 04:48:00,
2013-03-08 21:53:00,29.6,27.0,29.64,SW,232,0.0,2.0,90,0.00,,,0.00,Wunderground v.1.15,2013-03-09 04:53:00,
2013-03-08 21:58:00,29.4,26.8,29.64,SW,232,0.0,2.0,90,0.00,,,0.00,Wunderground v.1.15,2013-03-09 04:58:00,
2013-03-08 22:00:00,29.3,26.7,29.64,SW,232,0.0,0.0,90,0.00,,,0.00,Wunderground v.1.15,2013-03-09 05:00:00,
2013-03-08 22:05:00,29.3,26.7,29.63,SW,232,0.0,3.0,90,0.00,,,0.00,Wunderground v.1.15,2013-03-09 05:05:00,
2013-03-08 22:10:00,29.1,26.5,29.64,SW,232,4.0,4.0,90,0.00,,,0.00,Wunderground v.1.15,2013-03-09 05:10:00,
2013-03-08 22:15:00,28.8,26.2,29.64,SW,232,2.0,6.0,90,0.00,,,0.00,Wunderground v.1.15,2013-03-09 05:15:00,
2013-03-08 22:20:00,28.9,26.3,29.65,SW,232,5.0,6.0,90,0.00,,,0.00,Wunderground v.1.15,2013-03-09 05:20:00,
2013-03-08 22:25:00,28.8,26.2,29.65,SW,232,5.0,6.0,90,0.00,,,0.00,Wunderground v.1.15,2013-03-09 05:25:00,
2013-03-08 22:30:00,29.0,26.4,29.65,SW,232,4.0,4.0,90,0.00,,,0.00,Wunderground v.1.15,2013-03-09 05:30:00,
2013-03-08 22:35:00,29.1,26.5,29.64,SW,232,3.0,6.0,90,0.00,,,0.00,Wunderground v.1.15,2013-03-09 05:35:00,
2013-03-08 22:40:00,29.2,26.6,29.64,SW,232,4.0,6.0,90,0.00,,,0.00,Wunderground v.1.15,2013-03-09 05:40:00,
2013-03-08 22:45:00,29.7,27.4,29.64,SW,232,8.0,9.0,91,0.00,,,0.00,Wunderground v.1.15,2013-03-09 05:45:00,
2013-03-08 22:50:00,29.9,27.6,29.64,SW,232,4.0,6.0,91,0.00,,,0.00,Wunderground v.1.15,2013-03-09 05:50:00,
2013-03-08 22:55:00,29.9,27.6,29.64,SW,232,3.0,6.0,91,0.00,,,0.00,Wunderground v.1.15,2013-03-09 05:55:00,
2013-03-08 23:00:00,29.8,27.5,29.64,SW,232,0.0,3.0,91,0.00,,,0.00,Wunderground v.1.15,2013-03-09 06:00:00,
2013-03-08 23:05:00,29.8,27.5,29.63,SW,232,0.0,3.0,91,0.00,,,0.00,Wunderground v.1.15,2013-03-09 06:05:00,
2013-03-08 23:10:00,29.8,27.5,29.64,SW,232,2.0,3.0,91,0.00,,,0.00,Wunderground v.1.15,2013-03-09 06:10:00,
2013-03-08 23:15:00,29.9,27.6,29.64,SW,232,0.0,3.0,91,0.00,,,0.00,Wunderground v.1.15,2013-03-09 06:15:00,
2013-03-08 23:20:00,29.9,27.6,29.63,SW,232,0.0,1.0,91,0.00,,,0.00,Wunderground v.1.15,2013-03-09 06:20:00,
2013-03-08 23:25:00,30.1,27.8,29.64,SW,232,0.0,1.0,91,0.00,,,0.00,Wunderground v.1.15,2013-03-09 06:25:00,
2013-03-08 23:30:00,30.2,27.9,29.63,SW,232,0.0,0.0,91,0.00,,,0.00,Wunderground v.1.15,2013-03-09 06:30:00,
2013-03-08 23:35:00,30.2,27.9,29.62,SW,232,0.0,0.0,91,0.00,,,0.00,Wunderground v.1.15,2013-03-09 06:35:00,
2013-03-08 23:40:00,30.2,27.9,29.62,SW,232,0.0,0.0,91,0.00,,,0.00,Wunderground v.1.15,2013-03-09 06:40:00,
2013-03-08 23:45:00,30.2,27.9,29.62,SW,232,0.0,0.0,91,0.00,,,0.00,Wunderground v.1.15,2013-03-09 06:45:00,
2013-03-08 23:50:00,30.2,27.9,29.63,SW,232,0.0,0.0,91,0.00,,,0.00,Wunderground v.1.15,2013-03-09 06:50:00,
2013-03-08 23:55:00,30.3,28.0,29.63,SW,232,0.0,0.0,91,0.00,,,0.00,Wunderground v.1.15,2013-03-09 06:55:00,